カタログに戻る

QIANFAN-122

運用中通信PO
NORAD 68649·PAYLOAD·🇨🇳 China

打ち上げ Apr 7, 2026 から Wenchang Space Launch Site

Loading…

次のパス (今後24時間)

TLE

最新Source: Space-Track

元期: Sep 14, 2026, 14:09 UTC

1 68649U 26075P   26257.58975685  .00000076  00000-0  99214-4 0  9990
2 68649  88.9873 311.8689 0002251  89.1232 271.0177 13.51026974 21870

AllMySatでQIANFAN-122をリアルタイム追跡

Download on the App Store